Time,TemperatureF,DewpointF,PressureIn,WindDirection,WindDirectionDegrees,WindSpeedMPH,WindSpeedGustMPH,Humidity,HourlyPrecipIn,Conditions,Clouds,dailyrainin,SolarRadiationWatts/m^2,SoftwareType,DateUTC
2013-03-17 00:02:00,57.0,40.5,30.06,West,281,3.0,6.0,54,0.00,RA,,0.00,0.0,WeatherDisplay:10.37,2013-03-17 07:02:00,
2013-03-17 00:07:00,56.9,39.9,30.06,West,263,2.9,3.5,53,0.00,RA,,0.00,0.0,WeatherDisplay:10.37,2013-03-17 07:07:00,
2013-03-17 00:13:00,56.6,40.1,30.06,North,10,0.7,3.5,54,0.00,,,0.00,0.0,WeatherDisplay:10.37,2013-03-17 07:13:00,
2013-03-17 00:18:00,56.3,40.3,30.06,NNW,329,4.1,6.9,55,0.00,,,0.00,0.0,WeatherDisplay:10.37,2013-03-17 07:18:00,
2013-03-17 00:23:00,56.2,40.2,30.06,North,355,1.6,5.8,55,0.00,,,0.00,0.0,WeatherDisplay:10.37,2013-03-17 07:23:00,
2013-03-17 00:28:00,56.1,40.1,30.07,North,9,1.1,3.5,55,0.00,,,0.00,0.0,WeatherDisplay:10.37,2013-03-17 07:28:00,
2013-03-17 00:33:00,56.0,40.1,30.07,North,360,3.8,6.9,55,0.00,,,0.00,0.0,WeatherDisplay:10.37,2013-03-17 07:33:00,
2013-03-17 00:38:00,55.9,40.0,30.06,West,276,2.0,2.3,55,0.00,,,0.00,0.0,WeatherDisplay:10.37,2013-03-17 07:38:00,
2013-03-17 00:43:00,55.9,40.0,30.06,West,267,2.3,4.6,55,0.00,,,0.00,0.0,WeatherDisplay:10.37,2013-03-17 07:43:00,
2013-03-17 00:48:00,55.6,40.1,30.06,NNW,344,0.6,3.5,56,0.00,,,0.00,0.0,WeatherDisplay:10.37,2013-03-17 07:48:00,
2013-03-17 00:54:00,55.3,39.9,30.06,WSW,239,4.2,9.2,56,0.00,,,0.00,0.0,WeatherDisplay:10.37,2013-03-17 07:54:00,
2013-03-17 00:59:00,55.7,39.8,30.06,WNW,287,4.3,13.8,55,0.00,,,0.00,0.0,WeatherDisplay:10.37,2013-03-17 07:59:00,
2013-03-17 01:04:00,56.2,39.8,30.06,NW,313,3.5,6.9,54,0.00,CLR,,0.00,0.0,WeatherDisplay:10.37,2013-03-17 08:04:00,
2013-03-17 01:09:00,56.3,39.4,30.06,NW,310,2.0,3.5,53,0.00,CLR,,0.00,0.0,WeatherDisplay:10.37,2013-03-17 08:09:00,
2013-03-17 01:14:00,56.2,39.8,30.06,WNW,288,3.0,4.6,54,0.00,CLR,,0.00,0.0,WeatherDisplay:10.37,2013-03-17 08:14:00,
2013-03-17 01:19:00,56.2,39.8,30.06,NNW,348,2.8,3.5,54,0.00,CLR,,0.00,0.0,WeatherDisplay:10.37,2013-03-17 08:19:00,
2013-03-17 01:24:00,55.9,39.5,30.06,NNE,17,2.2,3.5,54,0.00,CLR,,0.00,0.0,WeatherDisplay:10.37,2013-03-17 08:24:00,
2013-03-17 01:29:00,55.7,39.8,30.07,NNE,30,1.4,1.4,55,0.00,CLR,,0.00,0.0,WeatherDisplay:10.37,2013-03-17 08:29:00,
2013-03-17 01:34:00,55.4,39.5,30.07,WSW,256,2.4,4.6,55,0.00,CLR,,0.00,0.0,WeatherDisplay:10.37,2013-03-17 08:34:00,
2013-03-17 01:39:00,55.3,39.4,30.07,NW,315,1.5,2.3,55,0.00,CLR,,0.00,0.0,WeatherDisplay:10.37,2013-03-17 08:39:00,
2013-03-17 01:44:00,55.2,39.8,30.07,NE,35,6.4,9.2,56,0.00,CLR,,0.00,0.0,WeatherDisplay:10.37,2013-03-17 08:44:00,
2013-03-17 01:49:00,54.6,40.1,30.07,NE,35,5.3,11.5,58,0.00,CLR,,0.00,0.0,WeatherDisplay:10.37,2013-03-17 08:49:00,
2013-03-17 01:54:00,53.9,39.9,30.08,NNE,21,4.5,5.8,59,0.00,CLR,,0.00,0.0,WeatherDisplay:10.37,2013-03-17 08:54:00,
2013-03-17 01:59:00,53.1,40.0,30.07,WNW,288,1.8,3.5,61,0.00,CLR,,0.00,0.0,WeatherDisplay:10.37,2013-03-17 08:59:00,
2013-03-17 02:04:00,52.9,39.8,30.07,West,280,1.5,4.6,61,0.00,,,0.00,0.0,WeatherDisplay:10.37,2013-03-17 09:04:00,
2013-03-17 02:09:00,52.7,40.0,30.08,NNE,24,1.0,4.6,62,0.00,,,0.00,0.0,WeatherDisplay:10.37,2013-03-17 09:09:00,
2013-03-17 02:14:00,52.5,39.8,30.07,NNW,331,1.7,3.5,62,0.00,,,0.00,0.0,WeatherDisplay:10.37,2013-03-17 09:14:00,
2013-03-17 02:20:00,52.5,39.8,30.08,NNE,15,0.3,2.3,62,0.00,,,0.00,0.0,WeatherDisplay:10.37,2013-03-17 09:20:00,
2013-03-17 02:25:00,52.4,39.8,30.08,NNE,15,1.6,3.5,62,0.00,,,0.00,0.0,WeatherDisplay:10.37,2013-03-17 09:25:00,
2013-03-17 02:30:00,52.2,40.0,30.08,NNE,25,0.9,3.5,63,0.00,,,0.00,0.0,WeatherDisplay:10.37,2013-03-17 09:30:00,
2013-03-17 02:36:00,52.1,39.9,30.08,NNE,25,1.0,3.0,63,0.00,,,0.00,0.0,WeatherDisplay:10.37,2013-03-17 09:36:00,
2013-03-17 02:41:00,51.9,39.7,30.09,NNE,25,0.0,0.0,63,0.00,,,0.00,0.0,WeatherDisplay:10.37,2013-03-17 09:41:00,
2013-03-17 02:46:00,51.6,39.8,30.09,NNE,25,0.0,1.0,64,0.00,,,0.00,0.0,WeatherDisplay:10.37,2013-03-17 09:46:00,
2013-03-17 02:51:00,51.4,39.6,30.08,NNE,25,0.1,1.2,64,0.00,,,0.00,0.0,WeatherDisplay:10.37,2013-03-17 09:51:00,
2013-03-17 02:57:00,51.2,39.8,30.09,NNE,25,0.1,1.2,65,0.00,,,0.00,0.0,WeatherDisplay:10.37,2013-03-17 09:57:00,
2013-03-17 03:02:00,51.0,39.6,30.08,WNW,286,1.5,3.5,65,0.00,,,0.00,0.0,WeatherDisplay:10.37,2013-03-17 10:02:00,
2013-03-17 03:07:00,50.8,39.5,30.08,West,281,0.0,3.5,65,0.00,,,0.00,0.0,WeatherDisplay:10.37,2013-03-17 10:07:00,
2013-03-17 03:13:00,50.4,39.5,30.08,West,281,0.0,0.0,66,0.00,,,0.00,0.0,WeatherDisplay:10.37,2013-03-17 10:13:00,
2013-03-17 03:18:00,50.1,39.6,30.09,West,280,0.0,0.0,67,0.00,,,0.00,0.0,WeatherDisplay:10.37,2013-03-17 10:18:00,
2013-03-17 03:23:00,50.0,39.5,30.09,West,281,0.0,0.0,67,0.00,,,0.00,0.0,WeatherDisplay:10.37,2013-03-17 10:23:00,
2013-03-17 03:29:00,49.9,39.8,30.09,West,281,0.0,0.0,68,0.00,,,0.00,0.0,WeatherDisplay:10.37,2013-03-17 10:29:00,
2013-03-17 03:34:00,49.7,39.6,30.09,West,281,0.0,1.2,68,0.00,,,0.00,0.0,WeatherDisplay:10.37,2013-03-17 10:34:00,
2013-03-17 03:39:00,49.5,39.7,30.09,West,281,0.1,1.2,69,0.00,,,0.00,0.0,WeatherDisplay:10.37,2013-03-17 10:39:00,
2013-03-17 03:44:00,49.4,39.7,30.08,West,281,0.0,0.0,69,0.00,,,0.00,0.0,WeatherDisplay:10.37,2013-03-17 10:44:00,
2013-03-17 03:49:00,49.4,39.7,30.08,West,281,0.0,0.0,69,0.00,,,0.00,0.0,WeatherDisplay:10.37,2013-03-17 10:49:00,
2013-03-17 03:54:00,49.2,39.5,30.08,West,280,0.9,4.0,69,0.00,,,0.00,0.0,WeatherDisplay:10.37,2013-03-17 10:54:00,
2013-03-17 03:59:00,49.5,39.4,30.08,WNW,282,1.3,1.3,68,0.00,,,0.00,0.0,WeatherDisplay:10.37,2013-03-17 10:59:00,
2013-03-17 04:04:00,50.1,39.6,30.07,NW,323,1.4,3.5,67,0.00,,,0.00,0.0,WeatherDisplay:10.37,2013-03-17 11:04:00,
2013-03-17 04:09:00,51.0,39.2,30.07,North,360,0.0,1.2,64,0.00,,,0.00,0.0,WeatherDisplay:10.37,2013-03-17 11:09:00,
2013-03-17 04:14:00,51.3,39.1,30.07,NNE,20,3.8,8.1,63,0.00,,,0.00,0.0,WeatherDisplay:10.37,2013-03-17 11:14:00,
2013-03-17 04:19:00,51.2,39.4,30.07,NE,34,4.2,8.1,64,0.00,,,0.00,0.0,WeatherDisplay:10.37,2013-03-17 11:19:00,
2013-03-17 04:24:00,51.1,39.3,30.07,NNE,33,0.7,3.5,64,0.00,,,0.00,0.0,WeatherDisplay:10.37,2013-03-17 11:24:00,
2013-03-17 04:29:00,51.0,39.2,30.07,North,360,1.6,3.5,64,0.00,,,0.00,0.0,WeatherDisplay:10.37,2013-03-17 11:29:00,
2013-03-17 04:34:00,50.9,39.1,30.08,NNE,23,4.3,5.8,64,0.00,,,0.00,0.0,WeatherDisplay:10.37,2013-03-17 11:34:00,
2013-03-17 04:39:00,50.6,39.3,30.08,NNE,28,3.1,3.5,65,0.00,,,0.00,0.0,WeatherDisplay:10.37,2013-03-17 11:39:00,
2013-03-17 04:45:00,50.2,39.3,30.07,West,280,3.9,6.9,66,0.00,,,0.00,0.0,WeatherDisplay:10.37,2013-03-17 11:45:00,
2013-03-17 04:50:00,50.3,39.0,30.07,WNW,284,2.2,5.0,65,0.00,,,0.00,0.0,WeatherDisplay:10.37,2013-03-17 11:50:00,
2013-03-17 04:55:00,50.5,38.8,30.07,WNW,284,2.4,3.5,64,0.00,,,0.00,0.0,WeatherDisplay:10.37,2013-03-17 11:55:00,
2013-03-17 05:00:00,50.8,38.7,30.07,WNW,300,2.1,5.8,63,0.00,,,0.00,0.0,WeatherDisplay:10.37,2013-03-17 12:00:00,
2013-03-17 05:05:00,51.0,38.4,30.07,West,273,0.1,1.2,62,0.00,,,0.00,0.0,WeatherDisplay:10.37,2013-03-17 12:05:00,
2013-03-17 05:10:00,50.9,38.3,30.07,West,264,2.4,3.5,62,0.00,,,0.00,0.0,WeatherDisplay:10.37,2013-03-17 12:10:00,
2013-03-17 05:15:00,50.8,38.7,30.07,West,281,4.7,5.8,63,0.00,,,0.00,0.0,WeatherDisplay:10.37,2013-03-17 12:15:00,
2013-03-17 05:20:00,50.8,38.7,30.07,WNW,284,2.1,4.6,63,0.00,,,0.00,0.0,WeatherDisplay:10.37,2013-03-17 12:20:00,
2013-03-17 05:25:00,50.7,38.6,30.07,NW,317,4.4,6.9,63,0.00,,,0.00,0.0,WeatherDisplay:10.37,2013-03-17 12:25:00,
2013-03-17 05:30:00,50.5,38.4,30.07,WNW,286,2.4,6.0,63,0.00,,,0.00,0.0,WeatherDisplay:10.37,2013-03-17 12:30:00,
2013-03-17 05:35:00,50.4,38.7,30.07,WNW,283,2.5,5.8,64,0.00,,,0.00,0.0,WeatherDisplay:10.37,2013-03-17 12:35:00,
2013-03-17 05:40:00,50.2,38.5,30.07,West,262,2.7,10.4,64,0.00,,,0.00,0.0,WeatherDisplay:10.37,2013-03-17 12:40:00,
2013-03-17 05:45:00,50.1,38.4,30.07,West,277,1.0,5.8,64,0.00,,,0.00,0.0,WeatherDisplay:10.37,2013-03-17 12:45:00,
2013-03-17 05:50:00,50.0,38.3,30.07,NW,311,2.2,9.2,64,0.00,,,0.00,0.0,WeatherDisplay:10.37,2013-03-17 12:50:00,
2013-03-17 05:55:00,50.0,38.3,30.07,South,171,0.6,2.3,64,0.00,,,0.00,0.0,WeatherDisplay:10.37,2013-03-17 12:55:00,
2013-03-17 06:00:00,49.9,38.2,30.07,North,355,0.1,2.3,64,0.00,,,0.00,0.0,WeatherDisplay:10.37,2013-03-17 13:00:00,
2013-03-17 06:05:00,49.7,38.0,30.07,NNW,327,0.6,3.5,64,0.00,,,0.00,0.0,WeatherDisplay:10.37,2013-03-17 13:05:00,
2013-03-17 06:10:00,49.6,37.9,30.07,NNW,329,0.0,0.0,64,0.00,,,0.00,0.0,WeatherDisplay:10.37,2013-03-17 13:10:00,
2013-03-17 06:15:00,49.4,38.1,30.07,NNW,333,1.8,3.5,65,0.00,,,0.00,0.0,WeatherDisplay:10.37,2013-03-17 13:15:00,
2013-03-17 06:20:00,49.2,37.9,30.08,NNW,338,1.2,2.3,65,0.00,,,0.00,0.0,WeatherDisplay:10.37,2013-03-17 13:20:00,
2013-03-17 06:25:00,49.1,37.8,30.08,NW,319,1.8,3.5,65,0.00,,,0.00,0.0,WeatherDisplay:10.37,2013-03-17 13:25:00,
2013-03-17 06:30:00,49.1,37.4,30.08,WNW,302,1.8,3.5,64,0.00,,,0.00,0.0,WeatherDisplay:10.37,2013-03-17 13:30:00,
2013-03-17 06:35:00,49.1,37.4,30.08,WNW,295,0.5,2.3,64,0.00,,,0.00,0.0,WeatherDisplay:10.37,2013-03-17 13:35:00,
2013-03-17 06:40:00,49.0,37.3,30.09,WNW,298,1.0,2.3,64,0.00,,,0.00,0.0,WeatherDisplay:10.37,2013-03-17 13:40:00,
2013-03-17 06:45:00,48.9,37.6,30.09,WNW,298,1.2,3.5,65,0.00,,,0.00,0.0,WeatherDisplay:10.37,2013-03-17 13:45:00,
2013-03-17 06:50:00,48.7,37.5,30.09,West,275,1.6,3.5,65,0.00,,,0.00,0.0,WeatherDisplay:10.37,2013-03-17 13:50:00,
2013-03-17 06:55:00,49.0,36.9,30.09,West,275,0.4,1.2,63,0.00,,,0.00,0.0,WeatherDisplay:10.37,2013-03-17 13:55:00,
2013-03-17 07:00:00,49.0,37.3,30.10,West,275,0.6,2.3,64,0.00,,,0.00,0.0,WeatherDisplay:10.37,2013-03-17 14:00:00,
2013-03-17 07:05:00,48.8,37.2,30.10,West,279,2.0,2.3,64,0.00,,,0.00,0.0,WeatherDisplay:10.37,2013-03-17 14:05:00,
2013-03-17 07:10:00,48.7,37.5,30.10,North,360,0.5,3.5,65,0.00,,,0.00,0.0,WeatherDisplay:10.37,2013-03-17 14:10:00,
2013-03-17 07:15:00,48.6,37.4,30.10,WNW,296,0.8,1.2,65,0.00,,,0.00,0.0,WeatherDisplay:10.37,2013-03-17 14:15:00,
2013-03-17 07:20:00,48.8,37.2,30.10,WNW,284,2.2,3.5,64,0.00,,,0.00,5.0,WeatherDisplay:10.37,2013-03-17 14:20:00,
2013-03-17 07:25:00,48.9,37.3,30.10,West,280,3.6,5.8,64,0.00,,,0.00,9.0,WeatherDisplay:10.37,2013-03-17 14:25:00,
2013-03-17 07:30:00,49.0,36.9,30.10,West,273,4.5,5.8,63,0.00,CLR,,0.00,14.0,WeatherDisplay:10.37,2013-03-17 14:30:00,
2013-03-17 07:35:00,49.3,36.8,30.10,West,275,1.6,3.5,62,0.00,FEW,,0.00,19.0,WeatherDisplay:10.37,2013-03-17 14:35:00,
2013-03-17 07:40:00,49.7,36.8,30.11,West,279,0.6,4.0,61,0.00,SCT,,0.00,28.0,WeatherDisplay:10.37,2013-03-17 14:40:00,
2013-03-17 07:45:00,49.9,37.0,30.11,WNW,296,0.5,3.5,61,0.00,FEW,,0.00,35.0,WeatherDisplay:10.37,2013-03-17 14:45:00,
2013-03-17 07:50:00,49.9,37.0,30.11,North,355,0.5,3.5,61,0.00,FEW,,0.00,49.0,WeatherDisplay:10.37,2013-03-17 14:50:00,
2013-03-17 07:55:00,50.1,37.6,30.11,North,360,0.2,1.2,62,0.00,CLR,,0.00,83.0,WeatherDisplay:10.37,2013-03-17 14:55:00,
2013-03-17 08:00:00,50.6,37.6,30.11,North,355,1.2,3.5,61,0.00,CLR,,0.00,102.0,WeatherDisplay:10.37,2013-03-17 15:00:00,
2013-03-17 08:05:00,51.0,38.0,30.11,North,9,1.7,3.5,61,0.00,CLR,,0.00,116.0,WeatherDisplay:10.37,2013-03-17 15:05:00,
2013-03-17 08:10:00,51.1,37.7,30.11,North,5,1.8,4.6,60,0.00,SCT,,0.00,67.0,WeatherDisplay:10.37,2013-03-17 15:10:00,
2013-03-17 08:15:00,51.2,37.8,30.11,North,5,3.1,6.9,60,0.00,FEW,,0.00,102.0,WeatherDisplay:10.37,2013-03-17 15:15:00,
2013-03-17 08:20:00,51.1,38.1,30.11,North,355,2.3,4.6,61,0.00,SCT,,0.00,76.0,WeatherDisplay:10.37,2013-03-17 15:20:00,
2013-03-17 08:25:00,51.0,38.4,30.11,North,11,1.5,3.5,62,0.00,BKN,,0.00,65.0,WeatherDisplay:10.37,2013-03-17 15:25:00,
2013-03-17 08:30:00,51.0,38.8,30.11,NNE,20,2.2,6.9,63,0.00,BKN,,0.00,58.0,WeatherDisplay:10.37,2013-03-17 15:30:00,
2013-03-17 08:35:00,51.0,38.8,30.11,NE,38,4.6,6.0,63,0.00,BKN,,0.00,60.0,WeatherDisplay:10.37,2013-03-17 15:35:00,
2013-03-17 08:40:00,51.1,39.3,30.11,North,355,5.6,9.2,64,0.00,CLR,,0.00,237.0,WeatherDisplay:10.37,2013-03-17 15:40:00,
2013-03-17 08:45:00,51.3,39.5,30.11,NNE,28,3.1,4.6,64,0.00,CLR,,0.00,267.0,WeatherDisplay:10.37,2013-03-17 15:45:00,
2013-03-17 08:50:00,51.7,39.5,30.11,NW,323,4.7,8.1,63,0.00,CLR,,0.00,304.0,WeatherDisplay:10.37,2013-03-17 15:50:00,
2013-03-17 08:55:00,52.5,39.8,30.11,West,275,1.9,3.5,62,0.00,CLR,,0.00,345.0,WeatherDisplay:10.37,2013-03-17 15:55:00,
2013-03-17 09:00:00,53.3,39.8,30.11,NNW,340,2.8,4.6,60,0.00,CLR,,0.00,243.0,WeatherDisplay:10.37,2013-03-17 16:00:00,
2013-03-17 09:05:00,53.3,39.3,30.11,North,5,2.1,3.5,59,0.00,FEW,,0.00,218.0,WeatherDisplay:10.37,2013-03-17 16:05:00,
2013-03-17 09:10:00,53.2,39.7,30.12,NNE,31,2.2,3.5,60,0.00,FEW,,0.00,229.0,WeatherDisplay:10.37,2013-03-17 16:10:00,
2013-03-17 09:15:00,53.4,39.4,30.12,WNW,295,1.9,4.6,59,0.00,CLR,,0.00,322.0,WeatherDisplay:10.37,2013-03-17 16:15:00,
2013-03-17 09:20:00,54.3,39.8,30.12,NNE,19,2.2,3.5,58,0.00,CLR,,0.00,374.0,WeatherDisplay:10.37,2013-03-17 16:20:00,
2013-03-17 09:25:00,55.0,40.0,30.12,NNE,28,1.2,3.5,57,0.00,CLR,,0.00,394.0,WeatherDisplay:10.37,2013-03-17 16:25:00,
2013-03-17 09:30:00,55.1,39.7,30.12,North,360,5.1,5.8,56,0.00,CLR,,0.00,394.0,WeatherDisplay:10.37,2013-03-17 16:30:00,
2013-03-17 09:35:00,55.4,39.5,30.12,NNE,24,2.7,4.0,55,0.00,CLR,,0.00,401.0,WeatherDisplay:10.37,2013-03-17 16:35:00,
2013-03-17 09:40:00,55.6,39.2,30.12,NNE,17,4.3,6.0,54,0.00,CLR,,0.00,464.0,WeatherDisplay:10.37,2013-03-17 16:40:00,
2013-03-17 09:45:00,56.1,37.7,30.12,NNE,15,4.2,8.1,50,0.00,CLR,,0.00,485.0,WeatherDisplay:10.37,2013-03-17 16:45:00,
2013-03-17 09:50:00,56.8,38.3,30.12,NNE,13,2.6,3.5,50,0.00,CLR,,0.00,499.0,WeatherDisplay:10.37,2013-03-17 16:50:00,
2013-03-17 09:55:00,57.0,37.0,30.12,North,360,4.0,7.0,47,0.00,CLR,,0.00,519.0,WeatherDisplay:10.37,2013-03-17 16:55:00,
2013-03-17 10:00:00,57.2,37.1,30.12,NNE,15,4.9,4.9,47,0.00,CLR,,0.00,541.0,WeatherDisplay:10.37,2013-03-17 17:00:00,
2013-03-17 10:05:00,57.2,36.6,30.12,NNE,24,4.6,8.1,46,0.00,CLR,,0.00,545.0,WeatherDisplay:10.37,2013-03-17 17:05:00,
2013-03-17 10:10:00,57.5,36.3,30.12,North,355,5.1,8.1,45,0.00,CLR,,0.00,531.0,WeatherDisplay:10.37,2013-03-17 17:10:00,
2013-03-17 10:15:00,57.7,37.6,30.13,NNW,348,1.4,4.6,47,0.00,CLR,,0.00,552.0,WeatherDisplay:10.37,2013-03-17 17:15:00,
2013-03-17 10:20:00,57.9,37.2,30.13,NNE,20,2.7,5.8,46,0.00,CLR,,0.00,578.0,WeatherDisplay:10.37,2013-03-17 17:20:00,
2013-03-17 10:25:00,58.1,36.9,30.13,NW,313,4.0,8.1,45,0.00,CLR,,0.00,584.0,WeatherDisplay:10.37,2013-03-17 17:25:00,
2013-03-17 10:30:00,58.3,38.1,30.13,North,11,2.9,5.8,47,0.00,CLR,,0.00,591.0,WeatherDisplay:10.37,2013-03-17 17:30:00,
2013-03-17 10:35:00,58.6,38.4,30.13,NNE,16,3.0,3.5,47,0.00,CLR,,0.00,613.0,WeatherDisplay:10.37,2013-03-17 17:35:00,
2013-03-17 10:40:00,59.8,37.8,30.13,North,10,4.2,5.8,44,0.00,CLR,,0.00,642.0,WeatherDisplay:10.37,2013-03-17 17:40:00,
2013-03-17 10:45:00,59.9,39.1,30.12,NNE,13,1.2,3.5,46,0.00,CLR,,0.00,654.0,WeatherDisplay:10.37,2013-03-17 17:45:00,
2013-03-17 10:50:00,60.5,39.0,30.12,North,360,2.5,4.0,45,0.00,CLR,,0.00,668.0,WeatherDisplay:10.37,2013-03-17 17:50:00,
2013-03-17 10:55:00,60.7,38.6,30.12,NW,313,1.2,2.3,44,0.00,CLR,,0.00,682.0,WeatherDisplay:10.37,2013-03-17 17:55:00,
2013-03-17 11:00:00,60.1,38.1,30.11,NNE,22,4.6,5.0,44,0.00,CLR,,0.00,689.0,WeatherDisplay:10.37,2013-03-17 18:00:00,
2013-03-17 11:05:00,60.1,37.5,30.12,North,360,4.3,6.9,43,0.00,CLR,,0.00,705.0,WeatherDisplay:10.37,2013-03-17 18:05:00,
2013-03-17 11:10:00,60.6,38.0,30.12,NNE,33,4.1,4.6,43,0.00,CLR,,0.00,722.0,WeatherDisplay:10.37,2013-03-17 18:10:00,
2013-03-17 11:15:00,61.2,38.5,30.12,NNE,32,2.2,8.0,43,0.00,CLR,,0.00,735.0,WeatherDisplay:10.37,2013-03-17 18:15:00,
2013-03-17 11:20:00,60.8,38.1,30.12,North,11,3.6,5.8,43,0.00,CLR,,0.00,752.0,WeatherDisplay:10.37,2013-03-17 18:20:00,
2013-03-17 11:25:00,60.5,38.5,30.12,NNE,15,2.6,4.6,44,0.00,CLR,,0.00,707.0,WeatherDisplay:10.37,2013-03-17 18:25:00,
2013-03-17 11:30:00,60.4,38.9,30.11,NE,54,1.2,2.3,45,0.00,CLR,,0.00,731.0,WeatherDisplay:10.37,2013-03-17 18:30:00,
2013-03-17 11:35:00,61.7,39.6,30.11,NNE,13,0.4,2.3,44,0.00,CLR,,0.00,761.0,WeatherDisplay:10.37,2013-03-17 18:35:00,
2013-03-17 11:40:00,61.9,39.1,30.11,NNE,21,3.0,4.6,43,0.00,CLR,,0.00,744.0,WeatherDisplay:10.37,2013-03-17 18:40:00,
2013-03-17 11:45:00,62.3,38.9,30.11,NE,37,1.6,5.8,42,0.00,CLR,,0.00,700.0,WeatherDisplay:10.37,2013-03-17 18:45:00,
2013-03-17 11:50:00,62.1,41.1,30.11,NE,53,1.6,6.9,46,0.00,CLR,,0.00,765.0,WeatherDisplay:10.37,2013-03-17 18:50:00,
2013-03-17 11:55:00,61.0,41.2,30.10,NE,39,1.0,3.5,48,0.00,CLR,,0.00,761.0,WeatherDisplay:10.37,2013-03-17 18:55:00,
2013-03-17 12:00:00,61.1,41.8,30.10,ENE,74,2.1,3.5,49,0.00,CLR,,0.00,784.0,WeatherDisplay:10.37,2013-03-17 19:00:00,
2013-03-17 12:05:00,60.6,40.8,30.10,ENE,75,0.6,3.5,48,0.00,CLR,,0.00,803.0,WeatherDisplay:10.37,2013-03-17 19:05:00,
2013-03-17 12:10:00,61.1,40.7,30.10,ESE,112,1.1,2.3,47,0.00,CLR,,0.00,823.0,WeatherDisplay:10.37,2013-03-17 19:10:00,
2013-03-17 12:15:00,61.3,40.9,30.10,NNE,32,1.8,4.6,47,0.00,CLR,,0.00,830.0,WeatherDisplay:10.37,2013-03-17 19:15:00,
2013-03-17 12:20:00,61.8,40.8,30.10,SE,128,0.8,1.2,46,0.00,CLR,,0.00,844.0,WeatherDisplay:10.37,2013-03-17 19:20:00,
2013-03-17 12:25:00,61.0,41.2,30.10,ESE,119,3.2,11.5,48,0.00,CLR,,0.00,846.0,WeatherDisplay:10.37,2013-03-17 19:25:00,
2013-03-17 12:30:00,61.1,41.2,30.10,SE,132,2.6,3.5,48,0.00,CLR,,0.00,858.0,WeatherDisplay:10.37,2013-03-17 19:30:00,
2013-03-17 12:35:00,60.6,40.8,30.09,SE,126,2.4,3.5,48,0.00,CLR,,0.00,858.0,WeatherDisplay:10.37,2013-03-17 19:35:00,
2013-03-17 12:40:00,61.0,40.1,30.09,ESE,120,1.8,3.5,46,0.00,CLR,,0.00,861.0,WeatherDisplay:10.37,2013-03-17 19:40:00,
2013-03-17 12:45:00,62.0,40.4,30.09,ESE,110,1.1,2.3,45,0.00,CLR,,0.00,868.0,WeatherDisplay:10.37,2013-03-17 19:45:00,
2013-03-17 12:50:00,62.1,40.5,30.09,NE,46,3.1,5.8,45,0.00,CLR,,0.00,872.0,WeatherDisplay:10.37,2013-03-17 19:50:00,
2013-03-17 12:55:00,62.3,39.5,30.09,NE,46,1.4,3.5,43,0.00,CLR,,0.00,884.0,WeatherDisplay:10.37,2013-03-17 19:55:00,
2013-03-17 13:00:00,62.8,40.5,30.09,NE,51,1.6,3.5,44,0.00,CLR,,0.00,844.0,WeatherDisplay:10.37,2013-03-17 20:00:00,
2013-03-17 13:05:00,62.1,39.9,30.09,ENE,78,1.4,3.5,44,0.00,CLR,,0.00,846.0,WeatherDisplay:10.37,2013-03-17 20:05:00,
2013-03-17 13:10:00,62.3,40.7,30.09,ENE,61,1.9,4.6,45,0.00,CLR,,0.00,875.0,WeatherDisplay:10.37,2013-03-17 20:10:00,
2013-03-17 13:15:00,62.9,40.0,30.09,NE,44,1.1,2.3,43,0.00,CLR,,0.00,868.0,WeatherDisplay:10.37,2013-03-17 20:15:00,
2013-03-17 13:20:00,63.7,40.8,30.09,NE,48,2.5,3.5,43,0.00,CLR,,0.00,863.0,WeatherDisplay:10.37,2013-03-17 20:20:00,
2013-03-17 13:25:00,64.2,40.0,30.08,NE,53,0.9,2.3,41,0.00,CLR,,0.00,875.0,WeatherDisplay:10.37,2013-03-17 20:25:00,
2013-03-17 13:30:00,64.2,40.0,30.08,ENE,57,1.3,3.0,41,0.00,CLR,,0.00,877.0,WeatherDisplay:10.37,2013-03-17 20:30:00,
2013-03-17 13:35:00,63.3,39.8,30.08,ENE,76,1.5,3.5,42,0.00,CLR,,0.00,874.0,WeatherDisplay:10.37,2013-03-17 20:35:00,
2013-03-17 13:40:00,63.8,40.9,30.08,ENE,60,2.1,3.5,43,0.00,CLR,,0.00,868.0,WeatherDisplay:10.37,2013-03-17 20:40:00,
2013-03-17 13:45:00,63.6,39.5,30.08,ENE,57,2.5,3.5,41,0.00,CLR,,0.00,874.0,WeatherDisplay:10.37,2013-03-17 20:45:00,
2013-03-17 13:50:00,64.1,39.9,30.08,NE,52,3.2,5.0,41,0.00,CLR,,0.00,867.0,WeatherDisplay:10.37,2013-03-17 20:50:00,
2013-03-17 13:55:00,64.8,40.5,30.08,NNE,24,0.5,1.2,41,0.00,CLR,,0.00,863.0,WeatherDisplay:10.37,2013-03-17 20:55:00,
2013-03-17 14:00:00,64.5,40.3,30.07,ESE,122,0.6,4.6,41,0.00,CLR,,0.00,847.0,WeatherDisplay:10.37,2013-03-17 21:00:00,
2013-03-17 14:05:00,65.6,40.6,30.07,ESE,119,0.4,2.3,40,0.00,CLR,,0.00,861.0,WeatherDisplay:10.37,2013-03-17 21:05:00,
2013-03-17 14:10:00,65.5,41.8,30.07,South,177,2.4,3.5,42,0.00,CLR,,0.00,863.0,WeatherDisplay:10.37,2013-03-17 21:10:00,
2013-03-17 14:15:00,66.1,42.3,30.06,SSE,158,5.1,5.8,42,0.00,CLR,,0.00,842.0,WeatherDisplay:10.37,2013-03-17 21:15:00,
2013-03-17 14:20:00,64.1,41.7,30.06,SSE,168,4.4,6.9,44,0.00,CLR,,0.00,842.0,WeatherDisplay:10.37,2013-03-17 21:20:00,
2013-03-17 14:25:00,64.8,42.4,30.05,South,182,0.2,2.3,44,0.00,CLR,,0.00,835.0,WeatherDisplay:10.37,2013-03-17 21:25:00,
2013-03-17 14:30:00,64.4,42.6,30.05,South,186,8.4,11.5,45,0.00,CLR,,0.00,833.0,WeatherDisplay:10.37,2013-03-17 21:30:00,
2013-03-17 14:35:00,63.7,42.5,30.05,South,177,3.6,8.1,46,0.00,CLR,,0.00,830.0,WeatherDisplay:10.37,2013-03-17 21:35:00,
2013-03-17 14:40:00,64.0,42.8,30.05,South,181,5.2,8.1,46,0.00,CLR,,0.00,823.0,WeatherDisplay:10.37,2013-03-17 21:40:00,
2013-03-17 14:45:00,63.6,41.9,30.05,SSW,202,2.4,6.9,45,0.00,CLR,,0.00,796.0,WeatherDisplay:10.37,2013-03-17 21:45:00,
2013-03-17 14:50:00,64.0,42.2,30.04,SSW,201,4.4,6.9,45,0.00,CLR,,0.00,715.0,WeatherDisplay:10.37,2013-03-17 21:50:00,
2013-03-17 14:55:00,64.1,41.7,30.04,South,171,3.4,4.6,44,0.00,CLR,,0.00,701.0,WeatherDisplay:10.37,2013-03-17 21:55:00,
2013-03-17 15:00:00,64.7,42.3,30.03,SSE,153,2.8,3.5,44,0.00,CLR,,0.00,710.0,WeatherDisplay:10.37,2013-03-17 22:00:00,
2013-03-17 15:05:00,64.7,41.7,30.03,SSW,195,3.3,4.6,43,0.00,CLR,,0.00,756.0,WeatherDisplay:10.37,2013-03-17 22:05:00,
2013-03-17 15:10:00,65.3,42.8,30.03,ESE,119,1.7,4.6,44,0.00,CLR,,0.00,756.0,WeatherDisplay:10.37,2013-03-17 22:10:00,
2013-03-17 15:15:00,65.6,41.9,30.03,ESE,119,2.0,3.5,42,0.00,CLR,,0.00,758.0,WeatherDisplay:10.37,2013-03-17 22:15:00,
2013-03-17 15:20:00,65.2,42.1,30.03,SSE,156,2.1,4.6,43,0.00,CLR,,0.00,724.0,WeatherDisplay:10.37,2013-03-17 22:20:00,
2013-03-17 15:25:00,65.5,43.6,30.03,SE,134,1.0,4.0,45,0.00,CLR,,0.00,719.0,WeatherDisplay:10.37,2013-03-17 22:25:00,
2013-03-17 15:30:00,65.0,42.5,30.03,South,175,4.4,9.2,44,0.00,CLR,,0.00,710.0,WeatherDisplay:10.37,2013-03-17 22:30:00,
2013-03-17 15:35:00,64.7,41.1,30.03,South,171,3.1,4.0,42,0.00,CLR,,0.00,680.0,WeatherDisplay:10.37,2013-03-17 22:35:00,
2013-03-17 15:40:00,65.5,41.2,30.03,SSE,153,3.2,5.8,41,0.00,CLR,,0.00,664.0,WeatherDisplay:10.37,2013-03-17 22:40:00,
2013-03-17 15:45:00,65.3,42.2,30.03,South,190,3.5,8.1,43,0.00,CLR,,0.00,671.0,WeatherDisplay:10.37,2013-03-17 22:45:00,
2013-03-17 15:50:00,65.1,42.6,30.03,South,183,5.2,8.1,44,0.00,CLR,,0.00,664.0,WeatherDisplay:10.37,2013-03-17 22:50:00,
2013-03-17 15:55:00,65.2,42.7,30.02,SSW,195,4.9,7.0,44,0.00,CLR,,0.00,643.0,WeatherDisplay:10.37,2013-03-17 22:55:00,
2013-03-17 16:00:00,64.8,42.4,30.03,South,173,3.0,4.6,44,0.00,CLR,,0.00,635.0,WeatherDisplay:10.37,2013-03-17 23:00:00,
2013-03-17 16:05:00,65.1,41.4,30.03,South,190,3.1,5.8,42,0.00,CLR,,0.00,626.0,WeatherDisplay:10.37,2013-03-17 23:05:00,
2013-03-17 16:11:00,65.0,42.5,30.03,SSW,192,5.7,7.0,44,0.00,CLR,,0.00,603.0,WeatherDisplay:10.37,2013-03-17 23:11:00,
2013-03-17 16:16:00,65.2,42.7,30.03,SW,229,6.3,9.2,44,0.00,CLR,,0.00,555.0,WeatherDisplay:10.37,2013-03-17 23:16:00,
2013-03-17 16:21:00,64.6,42.2,30.03,SSW,207,6.2,10.4,44,0.00,CLR,,0.00,564.0,WeatherDisplay:10.37,2013-03-17 23:21:00,
2013-03-17 16:27:00,64.5,42.1,30.03,South,191,6.5,10.4,44,0.00,CLR,,0.00,547.0,WeatherDisplay:10.37,2013-03-17 23:27:00,
2013-03-17 16:32:00,64.0,42.2,30.03,South,175,4.5,8.1,45,0.00,CLR,,0.00,533.0,WeatherDisplay:10.37,2013-03-17 23:32:00,
2013-03-17 16:37:00,64.2,41.2,30.03,South,190,10.5,15.0,43,0.00,CLR,,0.00,452.0,WeatherDisplay:10.37,2013-03-17 23:37:00,
2013-03-17 16:42:00,64.2,41.8,30.03,South,188,6.1,11.5,44,0.00,CLR,,0.00,485.0,WeatherDisplay:10.37,2013-03-17 23:42:00,
2013-03-17 16:48:00,64.5,41.5,30.03,South,186,6.8,9.2,43,0.00,CLR,,0.00,455.0,WeatherDisplay:10.37,2013-03-17 23:48:00,
2013-03-17 16:53:00,64.7,42.3,30.03,South,175,1.2,2.3,44,0.00,CLR,,0.00,269.0,WeatherDisplay:10.37,2013-03-17 23:53:00,
2013-03-17 16:59:00,64.7,43.4,30.03,WNW,284,2.2,3.5,46,0.00,BKN,,0.00,135.0,WeatherDisplay:10.37,2013-03-17 23:59:00,
2013-03-17 17:04:00,64.6,42.8,30.03,North,360,1.8,1.8,45,0.00,BKN,,0.00,153.0,WeatherDisplay:10.37,2013-03-18 00:04:00,
2013-03-17 17:09:00,64.2,43.5,30.03,North,349,3.4,5.8,47,0.00,BKN,,0.00,169.0,WeatherDisplay:10.37,2013-03-18 00:09:00,
2013-03-17 17:14:00,63.6,43.0,30.03,WNW,302,2.1,3.5,47,0.00,CLR,,0.00,281.0,WeatherDisplay:10.37,2013-03-18 00:14:00,
2013-03-17 17:19:00,63.2,43.2,30.03,North,355,1.1,5.8,48,0.00,SCT,,0.00,148.0,WeatherDisplay:10.37,2013-03-18 00:19:00,
2013-03-17 17:24:00,62.7,42.2,30.03,West,281,1.2,4.6,47,0.00,BKN,,0.00,109.0,WeatherDisplay:10.37,2013-03-18 00:24:00,
2013-03-17 17:29:00,62.3,41.2,30.03,West,275,0.5,2.3,46,0.00,BKN,,0.00,132.0,WeatherDisplay:10.37,2013-03-18 00:29:00,
2013-03-17 17:34:00,61.9,41.4,30.03,WNW,291,0.2,5.8,47,0.00,BKN,,0.00,116.0,WeatherDisplay:10.37,2013-03-18 00:34:00,
2013-03-17 17:39:00,61.5,40.5,30.03,NE,41,0.4,3.5,46,0.00,BKN,,0.00,125.0,WeatherDisplay:10.37,2013-03-18 00:39:00,
2013-03-17 17:44:00,61.1,40.1,30.03,WNW,291,1.6,3.5,46,0.00,BKN,,0.00,107.0,WeatherDisplay:10.37,2013-03-18 00:44:00,
2013-03-17 17:49:00,60.7,40.3,30.03,North,9,0.5,3.5,47,0.00,BKN,,0.00,102.0,WeatherDisplay:10.37,2013-03-18 00:49:00,
2013-03-17 17:54:00,60.2,40.4,30.02,West,277,0.4,2.3,48,0.00,BKN,,0.00,97.0,WeatherDisplay:10.37,2013-03-18 00:54:00,
2013-03-17 17:59:00,59.7,40.0,30.03,West,276,1.3,5.8,48,0.00,BKN,,0.00,91.0,WeatherDisplay:10.37,2013-03-18 00:59:00,
2013-03-17 18:04:00,59.2,39.5,30.03,West,272,3.1,5.0,48,0.00,SCT,,0.00,90.0,WeatherDisplay:10.37,2013-03-18 01:04:00,
2013-03-17 18:09:00,58.9,39.2,30.02,WNW,284,1.2,4.6,48,0.00,SCT,,0.00,86.0,WeatherDisplay:10.37,2013-03-18 01:09:00,
2013-03-17 18:14:00,58.7,39.0,30.02,West,274,2.2,4.6,48,0.00,SCT,,0.00,79.0,WeatherDisplay:10.37,2013-03-18 01:14:00,
2013-03-17 18:19:00,58.5,38.3,30.02,West,271,1.0,3.5,47,0.00,SCT,,0.00,72.0,WeatherDisplay:10.37,2013-03-18 01:19:00,
2013-03-17 18:24:00,58.2,38.6,30.02,West,271,0.5,2.3,48,0.00,SCT,,0.00,69.0,WeatherDisplay:10.37,2013-03-18 01:24:00,
2013-03-17 18:29:00,57.9,38.8,30.02,NNW,338,0.5,3.5,49,0.00,SCT,,0.00,62.0,WeatherDisplay:10.37,2013-03-18 01:29:00,
2013-03-17 18:34:00,57.4,37.9,30.02,WSW,240,0.3,1.2,48,0.00,SCT,,0.00,54.0,WeatherDisplay:10.37,2013-03-18 01:34:00,
2013-03-17 18:39:00,57.0,37.5,30.02,West,281,0.6,4.6,48,0.00,SCT,,0.00,47.0,WeatherDisplay:10.37,2013-03-18 01:39:00,
2013-03-17 18:44:00,57.0,37.5,30.02,WNW,286,0.1,1.2,48,0.00,SCT,,0.00,39.0,WeatherDisplay:10.37,2013-03-18 01:44:00,
2013-03-17 18:49:00,56.5,37.0,30.02,WNW,294,0.9,3.5,48,0.00,SCT,,0.00,32.0,WeatherDisplay:10.37,2013-03-18 01:49:00,
2013-03-17 18:54:00,56.3,36.8,30.02,North,355,2.0,8.1,48,0.00,SCT,,0.00,28.0,WeatherDisplay:10.37,2013-03-18 01:54:00,
2013-03-17 18:59:00,55.9,37.0,30.02,NNW,333,1.0,3.5,49,0.00,FEW,,0.00,21.0,WeatherDisplay:10.37,2013-03-18 01:59:00,
2013-03-17 19:04:00,55.6,36.7,30.02,NW,312,0.5,1.2,49,0.00,CLR,,0.00,14.0,WeatherDisplay:10.37,2013-03-18 02:04:00,
2013-03-17 19:09:00,55.3,36.5,30.02,WNW,294,0.6,2.3,49,0.00,CLR,,0.00,7.0,WeatherDisplay:10.37,2013-03-18 02:09:00,
2013-03-17 19:14:00,55.1,36.3,30.02,WNW,295,0.5,2.0,49,0.00,,,0.00,0.0,WeatherDisplay:10.37,2013-03-18 02:14:00,
2013-03-17 19:19:00,54.9,36.1,30.02,WNW,288,2.2,3.5,49,0.00,,,0.00,0.0,WeatherDisplay:10.37,2013-03-18 02:19:00,
2013-03-17 19:24:00,54.6,36.3,30.02,WNW,288,1.1,2.3,50,0.00,,,0.00,0.0,WeatherDisplay:10.37,2013-03-18 02:24:00,
2013-03-17 19:29:00,54.4,36.1,30.02,West,274,2.4,3.5,50,0.00,,,0.00,0.0,WeatherDisplay:10.37,2013-03-18 02:29:00,
2013-03-17 19:34:00,54.2,36.5,30.02,WNW,283,1.6,4.6,51,0.00,,,0.00,0.0,WeatherDisplay:10.37,2013-03-18 02:34:00,
2013-03-17 19:39:00,53.9,36.7,30.02,WNW,283,0.9,0.0,52,0.00,,,0.00,0.0,WeatherDisplay:10.37,2013-03-18 02:39:00,
2013-03-17 19:44:00,53.8,36.1,30.02,WNW,283,0.4,2.3,51,0.00,,,0.00,0.0,WeatherDisplay:10.37,2013-03-18 02:44:00,
2013-03-17 19:49:00,53.7,36.0,30.02,WNW,283,2.7,4.6,51,0.00,,,0.00,0.0,WeatherDisplay:10.37,2013-03-18 02:49:00,
2013-03-17 19:54:00,53.7,36.5,30.02,WNW,283,0.3,0.0,52,0.00,,,0.00,0.0,WeatherDisplay:10.37,2013-03-18 02:54:00,
2013-03-17 19:59:00,53.5,36.8,30.02,WNW,283,0.0,0.0,53,0.00,,,0.00,0.0,WeatherDisplay:10.37,2013-03-18 02:59:00,
2013-03-17 20:04:00,53.4,36.7,30.02,WNW,283,0.2,1.2,53,0.00,,,0.00,0.0,WeatherDisplay:10.37,2013-03-18 03:04:00,
2013-03-17 20:09:00,53.3,37.5,30.02,WNW,283,0.0,0.0,55,0.00,,,0.00,0.0,WeatherDisplay:10.37,2013-03-18 03:09:00,
2013-03-17 20:14:00,53.3,37.5,30.02,WNW,283,0.0,0.0,55,0.00,,,0.00,0.0,WeatherDisplay:10.37,2013-03-18 03:14:00,
2013-03-17 20:19:00,53.2,38.4,30.03,WNW,283,1.3,1.3,57,0.00,,,0.00,0.0,WeatherDisplay:10.37,2013-03-18 03:19:00,
2013-03-17 20:24:00,53.0,39.5,30.03,WNW,283,0.0,0.0,60,0.00,,,0.00,0.0,WeatherDisplay:10.37,2013-03-18 03:24:00,
2013-03-17 20:29:00,53.0,38.6,30.03,WNW,283,0.0,0.0,58,0.00,,,0.00,0.0,WeatherDisplay:10.37,2013-03-18 03:29:00,
2013-03-17 20:34:00,53.0,39.9,30.03,WNW,283,0.0,0.0,61,0.00,,,0.00,0.0,WeatherDisplay:10.37,2013-03-18 03:34:00,
2013-03-17 20:39:00,52.8,40.1,30.03,WNW,283,0.0,0.0,62,0.00,,,0.00,0.0,WeatherDisplay:10.37,2013-03-18 03:39:00,
2013-03-17 20:44:00,52.5,39.8,30.03,WNW,283,0.0,0.0,62,0.00,,,0.00,0.0,WeatherDisplay:10.37,2013-03-18 03:44:00,
2013-03-17 20:49:00,52.1,39.5,30.03,WNW,283,0.0,0.0,62,0.00,,,0.00,0.0,WeatherDisplay:10.37,2013-03-18 03:49:00,
2013-03-17 20:54:00,52.0,39.4,30.03,WNW,283,0.0,0.0,62,0.00,,,0.00,0.0,WeatherDisplay:10.37,2013-03-18 03:54:00,
2013-03-17 20:59:00,52.2,40.4,30.03,WNW,283,0.0,0.0,64,0.00,,,0.00,0.0,WeatherDisplay:10.37,2013-03-18 03:59:00,
2013-03-17 21:00:00,52.1,39.9,30.03,WNW,283,0.0,0.0,63,0.00,,,0.00,0.0,WeatherDisplay:10.37,2013-03-18 04:00:00,
2013-03-17 21:04:00,51.9,39.7,30.03,WNW,283,0.5,1.2,63,0.00,,,0.00,0.0,WeatherDisplay:10.37,2013-03-18 04:04:00,
2013-03-17 21:09:00,51.8,39.6,30.04,WNW,283,0.0,0.0,63,0.00,,,0.00,0.0,WeatherDisplay:10.37,2013-03-18 04:09:00,
2013-03-17 21:14:00,51.9,40.1,30.04,WNW,283,0.0,0.0,64,0.00,,,0.00,0.0,WeatherDisplay:10.37,2013-03-18 04:14:00,
2013-03-17 21:16:00,51.9,40.1,30.04,WNW,283,0.0,0.0,64,0.00,,,0.00,0.0,WeatherDisplay:10.37,2013-03-18 04:16:00,
2013-03-17 21:22:00,51.7,40.3,30.04,WNW,283,0.0,0.0,65,0.00,,,0.00,0.0,WeatherDisplay:10.37,2013-03-18 04:22:00,
2013-03-17 21:27:00,51.4,40.4,30.04,WNW,283,0.0,0.0,66,0.00,,,0.00,0.0,WeatherDisplay:10.37,2013-03-18 04:27:00,
2013-03-17 21:32:00,51.4,40.8,30.04,WNW,283,0.0,0.0,67,0.00,,,0.00,0.0,WeatherDisplay:10.37,2013-03-18 04:32:00,
2013-03-17 21:37:00,51.2,40.2,30.04,WNW,283,0.0,0.0,66,0.00,,,0.00,0.0,WeatherDisplay:10.37,2013-03-18 04:37:00,
2013-03-17 21:41:00,51.1,40.5,30.05,WNW,283,0.0,0.0,67,0.00,,,0.00,0.0,WeatherDisplay:10.37,2013-03-18 04:41:00,
2013-03-17 21:46:00,51.0,40.4,30.05,WNW,283,0.0,0.0,67,0.00,,,0.00,0.0,WeatherDisplay:10.37,2013-03-18 04:46:00,
2013-03-17 21:51:00,50.7,40.5,30.05,WNW,283,0.0,0.0,68,0.00,,,0.00,0.0,WeatherDisplay:10.37,2013-03-18 04:51:00,
2013-03-17 21:56:00,50.6,40.4,30.05,WNW,283,0.0,0.0,68,0.00,,,0.00,0.0,WeatherDisplay:10.37,2013-03-18 04:56:00,
2013-03-17 22:02:00,50.3,39.4,30.04,WNW,283,0.0,0.0,66,0.00,,,0.00,0.0,WeatherDisplay:10.37,2013-03-18 05:02:00,
2013-03-17 22:07:00,50.2,39.7,30.05,WNW,283,0.0,0.0,67,0.00,,,0.00,0.0,WeatherDisplay:10.37,2013-03-18 05:07:00,
2013-03-17 22:12:00,50.1,40.3,30.05,WNW,283,0.0,0.0,69,0.00,,,0.00,0.0,WeatherDisplay:10.37,2013-03-18 05:12:00,
2013-03-17 22:17:00,50.1,40.7,30.05,WNW,283,0.0,0.0,70,0.00,,,0.00,0.0,WeatherDisplay:10.37,2013-03-18 05:17:00,
2013-03-17 22:22:00,49.8,40.4,30.05,WNW,283,0.0,0.0,70,0.00,,,0.00,0.0,WeatherDisplay:10.37,2013-03-18 05:22:00,
2013-03-17 22:27:00,49.5,39.7,30.05,WNW,283,0.0,0.0,69,0.00,,,0.00,0.0,WeatherDisplay:10.37,2013-03-18 05:27:00,
2013-03-17 22:32:00,49.4,39.7,30.06,WNW,283,0.0,0.0,69,0.00,,,0.00,0.0,WeatherDisplay:10.37,2013-03-18 05:32:00,
2013-03-17 22:37:00,49.0,39.6,30.06,WNW,283,0.0,0.0,70,0.00,,,0.00,0.0,WeatherDisplay:10.37,2013-03-18 05:37:00,
2013-03-17 22:42:00,48.9,40.6,30.05,WNW,283,0.0,0.0,73,0.00,,,0.00,0.0,WeatherDisplay:10.37,2013-03-18 05:42:00,
2013-03-17 22:47:00,48.7,40.1,30.05,WNW,283,0.0,0.0,72,0.00,,,0.00,0.0,WeatherDisplay:10.37,2013-03-18 05:47:00,
2013-03-17 22:52:00,48.4,39.8,30.05,WNW,283,0.0,0.0,72,0.00,,,0.00,0.0,WeatherDisplay:10.37,2013-03-18 05:52:00,
2013-03-17 22:57:00,48.1,39.9,30.05,WNW,283,0.0,0.0,73,0.00,,,0.00,0.0,WeatherDisplay:10.37,2013-03-18 05:57:00,
2013-03-17 23:02:00,48.0,40.1,30.06,WNW,283,0.0,0.0,74,0.00,,,0.00,0.0,WeatherDisplay:10.37,2013-03-18 06:02:00,
2013-03-17 23:07:00,47.8,39.6,30.06,WNW,283,0.0,0.0,73,0.00,,,0.00,0.0,WeatherDisplay:10.37,2013-03-18 06:07:00,
2013-03-17 23:12:00,47.7,39.5,30.06,WNW,283,0.0,0.0,73,0.00,,,0.00,0.0,WeatherDisplay:10.37,2013-03-18 06:12:00,
2013-03-17 23:17:00,47.6,39.7,30.06,WNW,283,0.0,0.0,74,0.00,,,0.00,0.0,WeatherDisplay:10.37,2013-03-18 06:17:00,
2013-03-17 23:22:00,47.3,39.8,30.06,WNW,283,0.0,0.0,75,0.00,,,0.00,0.0,WeatherDisplay:10.37,2013-03-18 06:22:00,
2013-03-17 23:27:00,46.9,39.4,30.06,WNW,283,0.0,0.0,75,0.00,,,0.00,0.0,WeatherDisplay:10.37,2013-03-18 06:27:00,
2013-03-17 23:32:00,46.9,39.4,30.06,WNW,283,0.0,0.0,75,0.00,,,0.00,0.0,WeatherDisplay:10.37,2013-03-18 06:32:00,
2013-03-17 23:37:00,47.0,39.5,30.06,WNW,283,0.0,0.0,75,0.00,,,0.00,0.0,WeatherDisplay:10.37,2013-03-18 06:37:00,
2013-03-17 23:42:00,46.8,39.3,30.06,WNW,283,0.0,0.0,75,0.00,,,0.00,0.0,WeatherDisplay:10.37,2013-03-18 06:42:00,
2013-03-17 23:47:00,46.7,39.2,30.06,WNW,283,0.0,0.0,75,0.00,,,0.00,0.0,WeatherDisplay:10.37,2013-03-18 06:47:00,
2013-03-17 23:52:00,46.5,39.0,30.06,WNW,283,0.0,0.0,75,0.00,,,0.00,0.0,WeatherDisplay:10.37,2013-03-18 06:52:00,
2013-03-17 23:57:00,46.3,39.1,30.06,WNW,283,0.0,0.0,76,0.00,,,0.00,0.0,WeatherDisplay:10.37,2013-03-18 06:57:00,